Home > Weather > Havana > Past weeks

Flag for Cuba Past Weather in Havana, Cuba — Yesterday and Last 2 Weeks

Now
70 °F

Mild.


Feels Like: 70 °F
Forecast: 76 / 88 °F
Wind: 1 mph from Northeast

Location: Aeropuerto Jose Marti - Rancho-Boyeros - Habana

Current Time: May 31, 2016 at 6:06:58 AM

Latest Report: May 31, 2016 at 5:00 AM


Visibility: 3 mi

Pressure: 29.92 "Hg

Humidity: 88%

Dew Point: 66 °F

Location of HavanaLocation

Past Weather in Havana — Graph

°F

Havana Temperature Yesterday

Maximum temperature yesterday: 88 °F (at 11:55 AM)
Minimum temperature yesterday: 70 °F (at 4:55 AM)
Average temperature yesterday: 78 °F

High & Low Weather Summary for the Past Weeks

 TemperatureHumidityPressure
High93 °F (May 16, 2:55 PM)94% (May 18, 7:55 AM)30.12 "Hg (May 18, 7:55 AM)
Low66 °F (May 27, 6:55 AM)31% (May 29, 12:55 PM)29.89 "Hg (May 22, 3:55 PM)
Average80 °F70%30.00 "Hg
* Reported May 16 3:55 AM — May 31 3:55 AM, Havana, Weather by CustomWeather, © 2016

Note: Actual official high and low records may vary slightly from our data, if they occured in-between our weather recording intervals... More about our weather records

Advertising

Havana Weather History for the Previous 24 Hours

Scroll right to see more
 ConditionsComfort  
Time TempWeatherWind HumidityBarometerVisibility
3:55 AM
Tue, May 31
70 °FClear.2 mph88%29.92 "Hg6 mi
2:55 AM72 °FClear.2 mph88%29.92 "Hg6 mi
1:55 AM72 °FClear.1 mph88%29.95 "Hg6 mi
12:55 AM73 °FClear.2 mph83%29.95 "Hg6 mi
11:55 PM
Mon, May 30
75 °FClear.2 mph83%29.98 "Hg6 mi
10:55 PM73 °FClear.1 mph89%29.98 "Hg6 mi
9:55 PM75 °FPassing clouds.3 mph83%29.98 "Hg6 mi
8:55 PM75 °FScattered clouds.2 mph83%29.98 "Hg5 mi
7:55 PM79 °FLight rain. Partly sunny.2 mph70%29.95 "Hg4 mi
6:55 PM81 °FPartly sunny.3 mph62%29.95 "Hg5 mi
5:55 PM86 °FScattered clouds.10 mph55%29.92 "Hg6 mi
4:55 PM84 °FScattered clouds.9 mph58%29.92 "Hg6 mi
2:55 PM77 °FScattered clouds.3 mph79%29.95 "Hg6 mi
1:55 PM84 °FWarm.13 mph58%29.98 "Hg3 mi
12:55 PM86 °FScattered clouds.9 mph59%29.98 "HgN/A
11:55 AM88 °FScattered clouds.6 mph49%29.98 "HgN/A
10:55 AM84 °FScattered clouds.5 mph58%30.01 "HgN/A
9:55 AM82 °FScattered clouds.6 mph66%30.01 "HgN/A
8:55 AM81 °FPassing clouds.6 mph74%30.01 "Hg6 mi
7:55 AM75 °FPassing clouds.2 mph89%29.98 "Hg6 mi
6:55 AM70 °FPassing clouds.No wind88%29.98 "Hg6 mi
Weather by CustomWeather, © 2016

See weather overviewHow to use our weather pages